Location: Béaulencourt
(50.0796°N, 2.8795°E)
Time: 15:22:58
(UTC+00:00)

Cosmos 1743 Rocket - Visible Passes

Search period start: 19 April 2026 00:00
Search period end: 29 April 2026 00:00
Orbit: 599 x 624 km, 82.6° (Epoch: 19 April)

Date Brightness Start Highest point End Pass type
(mag) Time Alt. Az. Time Alt. Az. Time Alt. Az.
19 Apr 6.6 03:23:01 10° NNE 03:26:16 20° ENE 03:29:30 10° ESE visible
20 Apr 5.8 03:37:30 10° N 03:41:25 30° ENE 03:45:17 10° SE visible
21 Apr 4.7 03:52:11 10° N 03:56:29 48° ENE 04:00:42 10° SSE visible
22 Apr 7.0 02:31:36 10° NE 02:32:56 11° ENE 02:34:16 10° ENE visible
22 Apr 3.7 04:07:02 10° N 04:11:27 80° E 04:15:49 10° SSE visible
23 Apr 6.5 02:45:15 10° NNE 02:48:11 17° ENE 02:51:06 10° ESE visible
24 Apr 5.9 02:59:38 10° NNE 03:03:21 26° ENE 03:07:02 10° SE visible
25 Apr 5.0 03:14:16 10° N 03:18:27 41° ENE 03:22:33 10° SE visible
26 Apr 4.0 03:29:03 10° N 03:33:27 68° ENE 03:37:46 10° SSE visible
27 Apr 6.5 02:07:33 10° NNE 02:10:05 15° ENE 02:12:35 10° E visible
27 Apr 3.5 03:43:58 10° NNW 03:48:22 73° W 03:52:41 10° S visible
28 Apr 6.0 02:21:47 10° NNE 02:25:17 23° ENE 02:28:44 10° ESE visible
